Weather in Moynoq

Uzbekistan     43˚46′05″N   59˚01′52″E
temp.,
°C
wind,
m/s
gust,
m/s
humid.,
%
clouds,
%
prec.,
mm/h
press.,
hPa
HPBL,
m
3 december, thu
thu323:00−1˚ne348273 0.0 103338
02:00+1˚nne347399 0.0 1033298
05:00+1˚nne3572100 0.1 1034392
08:00+1˚n3567100 0.1 1034383
11:00+2˚n4461100 0.1 1035955
14:00+2˚nnw4453100 0.0 10341027
17:00+1˚nnw466568 0.0 1033338
20:00−1˚nnw457550 0.0 1034117
4 december, fri
fri423:00−2˚nw457135 0.0 103458
02:00−3˚nw45820 0.0 103375
05:00−4˚nw45850 0.0 103375
08:00−4˚nnw458327 0.0 103478
11:00nnw566346 0.0 1035846
14:00n666699 0.0 1034878
17:00−1˚n6773100 0.1 1034846
20:00n6765100 0.0 1035901
5 december, sat
sat523:00−1˚nne5666100 0.0 1034879
02:00−1˚nne4677100 0.0 1034636
05:00−1˚nne4675100 0.1 1034681
08:00−5˚se459199 0.3 1034161
11:00−4˚se228699 0.8 1034247
14:00−2˚ese1181100 0.4 1033323
17:00−1˚ne4586100 0.6 1033403
20:00−2˚ene2393100 0.3 1033219
6 december, sun
sun623:00−4˚sse3494100 0.7 1033163
02:00−6˚s3489100 0.4 1033129
05:00−8˚s338699 0.4 103359
08:00−9˚sse238670 0.0 103322
11:00−5˚se236980 0.0 1034240
14:00−3˚ne226843 0.0 1033419
17:00−3˚ne349552 0.2 1032192
20:00−3˚ne4786100 0.3 1032190
7 december, mon
mon723:00−3˚ne3490100 0.5 1032128
02:00−5˚ne1296100 0.2 103126
05:00−4˚nne3491100 0.4 103161
08:00−3˚nne4786100 0.5 1032192
11:00−4˚e2391100 1.0 1033259
14:00−1˚nne4580100 0.4 1032737
17:00−3˚nne458399 0.5 1032181
20:00−4˚ne348599 0.1 103453